Location: Kuffner-Sternwarte
(48.2130°N, 16.2960°E)
Time: 02:44:43
(UTC+02:00)

COROT - Pass Details

Date: 23 March 2017
Orbit: 601 x 889 km, 90.0° (Epoch: 19 July)

Event Time Altitude Azimuth Distance (km) Brightness Sun altitude
Rises 00:49:08 0° 0° (N) 3,032 9.9 -39.7°
Reaches altitude 10° 00:51:18 10° 0° (N) 2,152 9.0 -39.6°
Enters shadow 00:52:03 15° 360° (N) 1,859 8.6 -39.6°
